User: anonymous   Login
Location: Hartman Creek State Park
(44.3257°N, 89.2134°W)
Time: 18:32:22
(UTC-06:00)
Language:

BREEZE-M DEB (TANK) - Orbit

View from above orbital plane
View from above orbital plane
View from above satellite
View from above satellite

Ground track
Ground track

The orbit data is extracted from the following two-line orbital elements,

1 29649U 06056B   15057.21802928  .00001070  00000-0  33986-3 0  9997
2 29649 049.4691 127.0481 5386279 357.9084 011.0817 04.96034227145818
Epoch (UTC): 26 February 2015 05:13:57
Eccentricity: 0.5386279
inclination: 49.4691°
perigee height: 322 km
apogee height: 15967 km
right ascension of ascending node: 127.0481°
argument of perigee: 357.9084°
revolutions per day: 4.96034227
mean anomaly at epoch: 11.0817°
orbit number at epoch: 14581

The dashed part of the orbit path shows where the satellite is in the earth's shadow,  

DLR